Regional Weather Roundup
Issued by NWS

Home | Current Version | Previous Version | Text Only | Print | Product List | Glossary Off
Versions: 1 2 3 4 5 6 7 8 9 10 11 12 13 14 15 16 17 18 19 20 21 22 23 24 25 26 27 28 29 30 31 32 33 34 35 36 37 38 39 40 41 42 43 44 45 46 47 48 49 50

000
ASUS45 KABQ 281401
RWRNM
NEW MEXICO REGIONAL WEATHER ROUNDUP
NATIONAL WEATHER SERVICE ALBUQUERQUE NM
800 AM MDT WED JUN 28 2017

NOTE: "FAIR" MEANS FEW OR NO CLOUDS BELOW 12,000 FEET AGL WITH NO
       SIGNIFICANT WEATHER OR OBSTRUCTIONS TO VISION.

      THIS PRODUCT IS RELEASED AS TWO VERSIONS.  ONE VERSION NEAR
      THE TOP OF THE HOUR CONTAINING PRELIMINARY DATA FROM ALBUQUERQUE
      AND OTHER STATIONS.  A FINAL VERSION WITH ADDITIONAL DATA IS
      ISSUED ABOUT 10 MINUTES AFTER THE HOUR.

NMZ501-503-504-510>518-281500-
NORTHWEST PLATEAU/NORTHCENTRAL MOUNTAINS

CITY           SKY/WX    TMP DP  RH WIND       PRES   REMARKS
FARMINGTON     FAIR      62  25  24 E8        30.03R
LOS ALAMOS       N/A     67  28  23 SE5       30.17R
SANTA FE       FAIR      67  38  34 S6        30.11R
TAOS           FAIR      66  30  26 SE7       30.17R
ANGEL FIRE     FAIR      50  38  62 CALM      30.24F

$$
NMZ402-403-502-505>509-281500-
WESTCENTRAL MOUNTAINS/SOUTHWEST MOUNTAINS

CITY           SKY/WX    TMP DP  RH WIND       PRES   REMARKS
GALLUP         FAIR      66  22  18 CALM      30.16R
GRANTS         FAIR      68  21  16 E6        30.17R
SILVER CITY    FAIR      73  26  17 NW12      30.12R

$$
NMZ407-409-411-412-281500-
SOUTHERN DESERTS

CITY           SKY/WX    TMP DP  RH WIND       PRES   REMARKS
DEMING         FAIR      74  43  32 W10       30.05R
LAS CRUCES     FAIR      77  47  34 W10       30.03S
HOLLOMAN AFB   FAIR      81  49  32 S14       30.00R
ALAMOGORDO     FAIR      82  48  30 S15       30.00R
T OR C         FAIR      72  33  24 NW12      30.04R

$$
NMZ519>523-281500-
CENTRAL VALLEYS/CENTRAL HIGHLANDS

CITY           SKY/WX    TMP DP  RH WIND       PRES   REMARKS
ALBUQUERQUE    PTSUNNY   70  33  25 S6        30.08R
DOUBLE EAGLE   MOSUNNY   68  30  24 S5        30.10R
MORIARTY ARPT  FAIR      66  44  43 CALM      30.13R
CLINES CORNERS FAIR      70  29  21 W15       30.16R
BELEN          FAIR      73  24  16 SW3       30.08R
SOCORRO        FAIR      65  51  60 CALM      30.06R

$$
NMZ524>526-539-540-281500-
SOUTHCENTRAL MOUNTAINS

CITY           SKY/WX    TMP DP  RH WIND       PRES   REMARKS
RUIDOSO        FAIR      66  48  52 N5        30.18R

$$
NMZ527>531-281500-
NORTHEAST HIGHLANDS/NORTHEAST PLAINS

CITY           SKY/WX    TMP DP  RH WIND       PRES   REMARKS
LAS VEGAS      FAIR      72  23  16 CALM      30.11R
RATON          FAIR      71  41  33 N16       30.05S
CLAYTON        FAIR      73  47  39 NW20G28   29.93S

$$
NMZ532>537-281500-
EASTCENTRAL PLAINS

CITY           SKY/WX    TMP DP  RH WIND       PRES   REMARKS
SANTA ROSA     FAIR      73  45  36 S9        29.97R
TUCUMCARI      FAIR      77  58  51 SW17      29.89R
CANNON AFB     FAIR      72  64  75 SW20      29.97S
CLOVIS AIRPORT FAIR      72  62  71 SW18      29.96S

$$
NMZ028-029-538-281500-
SOUTHEAST PLAINS

CITY           SKY/WX    TMP DP  RH WIND       PRES   REMARKS
ROSWELL        FAIR      76  60  57 S15       29.93R
ARTESIA        FAIR      75  63  64 SE21      29.95R
CARLSBAD       FAIR      75  65  70 SE13      29.92R
HOBBS          SUNNY     72  64  78 SE12      29.98S


$$




USA.gov is the U.S. government's official web portal to all federal, state and local government web resources and services.